Erie, PA

9:20 AM EST on December 14, 2019 (GMT -0500)
Erie International

Weather History for KERI - October, 2019

Change the Weather History Date:

Thursday, October 3, 2019

  Actual Average Record
Temperature  
Mean Temperature 60 °F 57 °F  
Max Temperature 66 °F 65 °F 87 °F (1951)
Min Temperature 53 °F 50 °F 31 °F (1974)
Degree Days  
Heating Degree Days 5 8  
Month to date heating degree days 4 24  
Since 1 July heating degree days 16 148  
Cooling Degree Days 0 1  
Month to date cooling degree days 20 3  
Year to date cooling degree days 845 632  
Growing Degree Days 10 (Base 50)    
Moisture  
Dew Point 55 °F    
Average Humidity 87    
Maximum Humidity 94    
Minimum Humidity 70    
Precipitation  
Precipitation 0.18 in 0.15 in 1.32 in (1986)
Month to date precipitation 0.26 0.44  
Year to date precipitation 29.89 30.88  
Snow  
Snow 0.00 in 0.00 in - ()
Month to date snowfall 0.0 0.0  
Since 1 July snowfall 0.0 0.0  
Since 1 September snowfall 0.0 0.0  
Snow Depth 0.00 in    
Sea Level Pressure  
Sea Level Pressure 29.97 in    
Wind  
Wind Speed 9 mph ()    
Max Wind Speed 18 mph    
Max Gust Speed 29 mph    
Visibility 8.3 miles    
Events Rain    
T = Trace of Precipitation, MM = Missing Value Source: Averaged Metar Reports

Daily Weather History Graph

Daily Weather History Graph

Search for Another Location

Airport or City:

Astronomy

Oct. 03, 2019 Rise Set
Actual Time 7:19 AM EDT 6:59 PM EDT
Civil Twilight 6:51 AM EDT 7:27 PM EDT
Nautical Twilight 6:19 AM EDT 7:59 PM EDT
Astronomical Twilight 5:46 AM EDT 8:32 PM EDT
Moon 12:54 PM EDT (10/3) 10:31 PM EDT (10/3)
Length of Visible Light 12h 35m
Length of Day
11h 39m
Waxing Crescent, 29% of the Moon is Illuminated
Oct 3
Waxing Crescent
Oct 5
First Quarter
Oct 13
Full
Oct 21
Last Quarter
Oct 27
New

Hourly Weather History & Observations

Time (EDT) Temp. Dew Point Humidity Pressure Visibility Wind Dir Wind Speed Gust Speed Precip Events Conditions
12:26 AM 57.9 °F 54.0 °F 87% 29.99 in 10.0 mi ENE 12.7 mph - 0.00 in Rain Light Rain
12:51 AM 57.9 °F 54.0 °F 87% 29.98 in 10.0 mi ENE 12.7 mph - 0.00 in Rain Light Rain
1:27 AM 57.9 °F 54.0 °F 87% 29.98 in 10.0 mi NE 11.5 mph - 0.00 in Rain Light Rain
1:51 AM 57.9 °F 54.0 °F 87% 29.98 in 10.0 mi NE 11.5 mph - 0.00 in Rain Light Rain
2:51 AM 57.9 °F 53.1 °F 84% 29.98 in 10.0 mi ENE 15.0 mph - 0.00 in Rain Light Rain
3:49 AM 55.4 °F 53.6 °F 94% 29.99 in 2.5 mi NE 12.7 mph - 0.01 in Rain Light Rain
3:51 AM 55.9 °F 52.0 °F 87% 29.99 in 2.5 mi ENE 11.5 mph - 0.01 in Rain Light Rain
3:59 AM 55.9 °F 53.1 °F 90% 29.98 in 3.0 mi ENE 12.7 mph - 0.00 in Rain Light Rain
4:07 AM 55.0 °F 52.0 °F 89% 29.98 in 4.0 mi NE 12.7 mph - 0.00 in Rain Light Rain
4:14 AM 55.0 °F 52.0 °F 89% 29.97 in 4.0 mi ENE 12.7 mph - 0.00 in Rain Light Rain
4:27 AM 55.0 °F 52.0 °F 89% 29.98 in 8.0 mi NE 10.4 mph - 0.00 in Rain Light Rain
4:38 AM 55.0 °F 52.0 °F 89% 29.99 in 10.0 mi NE 10.4 mph - 0.00 in Rain Light Rain
4:51 AM 55.0 °F 52.0 °F 89% 29.99 in 10.0 mi ENE 10.4 mph - 0.00 in Rain Light Rain
5:08 AM 55.0 °F 52.0 °F 89% 29.99 in 10.0 mi NE 11.5 mph - 0.00 in Rain Light Rain
5:51 AM 55.0 °F 52.0 °F 89% 29.99 in 6.0 mi NE 10.4 mph - 0.01 in Rain Light Rain
5:58 AM 54.0 °F 52.0 °F 93% 29.99 in 7.0 mi NE 10.4 mph - 0.00 in Rain Light Rain
6:22 AM 54.0 °F 52.0 °F 93% 30.00 in 9.0 mi ENE 9.2 mph - 0.00 in Rain Light Rain
6:47 AM 53.6 °F 51.8 °F 94% 30.00 in 5.0 mi ENE 6.9 mph - 0.05 in Rain Light Rain
6:51 AM 54.0 °F 52.0 °F 93% 29.99 in 4.0 mi ENE 9.2 mph - 0.08 in Rain Rain
7:25 AM 54.0 °F 52.0 °F 93% 29.98 in 10.0 mi ENE 8.1 mph - 0.03 in Rain Light Rain
7:51 AM 55.0 °F 52.0 °F 89% 29.96 in 10.0 mi ENE 8.1 mph - 0.03 in Rain Light Rain
7:58 AM 55.0 °F 52.0 °F 89% 29.96 in 10.0 mi NE 5.8 mph - 0.00 in Rain Light Rain
8:15 AM 55.0 °F 52.0 °F 89% 29.95 in 10.0 mi ENE 6.9 mph - 0.00 in Rain Light Rain
8:51 AM 55.9 °F 53.1 °F 90% 29.95 in 10.0 mi NNE 4.6 mph - 0.00 in Rain Light Rain
9:33 AM 57.9 °F 54.0 °F 87% 29.96 in 10.0 mi ENE 5.8 mph - 0.00 in Rain Light Rain
9:51 AM 57.9 °F 55.0 °F 90% 29.95 in 7.0 mi East 5.8 mph - 0.02 in Rain Light Rain
10:51 AM 57.9 °F 55.0 °F 90% 29.94 in 10.0 mi ENE 5.8 mph - 0.03 in Rain Light Rain
11:51 AM 60.1 °F 55.9 °F 86% 29.92 in 6.0 mi ENE 8.1 mph - 0.00 in Rain Light Rain
12:31 PM 60.1 °F 57.0 °F 90% 29.91 in 7.0 mi ENE 6.9 mph - 0.00 in Rain Light Rain
12:51 PM 60.1 °F 57.0 °F 90% 29.91 in 6.0 mi ENE 8.1 mph - 0.00 in Rain Light Rain
1:51 PM 61.0 °F 57.9 °F 90% 29.90 in 10.0 mi East 4.6 mph - 0.00 in Rain Light Rain
2:30 PM 62.1 °F 57.9 °F 86% 29.89 in 10.0 mi Calm Calm - 0.00 in   Overcast
2:51 PM 64.0 °F 59.0 °F 84% 29.89 in 10.0 mi Calm Calm - 0.00 in   Overcast
3:51 PM 64.0 °F 59.0 °F 84% 29.90 in 10.0 mi Calm Calm - N/A   Overcast
4:51 PM 66.0 °F 62.1 °F 87% 29.90 in 9.0 mi WSW 4.6 mph - N/A   Overcast
5:51 PM 64.9 °F 62.1 °F 90% 29.93 in 6.0 mi WNW 3.5 mph - N/A   Overcast
6:30 PM 66.0 °F 63.0 °F 90% 29.94 in 4.0 mi West 5.8 mph - N/A   Overcast
6:51 PM 66.9 °F 64.0 °F 90% 29.95 in 5.0 mi West 9.2 mph - N/A   Overcast
7:46 PM 66.2 °F 62.6 °F 88% 29.98 in 10.0 mi West 12.7 mph 21.9 mph N/A   Mostly Cloudy
7:51 PM 66.0 °F 61.0 °F 84% 29.98 in 10.0 mi West 15.0 mph 28.8 mph N/A   Mostly Cloudy
8:04 PM 64.9 °F 60.1 °F 84% 29.99 in 10.0 mi West 16.1 mph 21.9 mph N/A   Mostly Cloudy
8:35 PM 64.0 °F 59.0 °F 84% 30.01 in 10.0 mi WNW 12.7 mph 21.9 mph N/A   Mostly Cloudy
8:42 PM 64.0 °F 57.9 °F 80% 30.01 in 10.0 mi WNW 11.5 mph - N/A   Scattered Clouds
8:51 PM 64.0 °F 57.9 °F 80% 30.01 in 10.0 mi WNW 13.8 mph - N/A   Mostly Cloudy
9:20 PM 64.0 °F 57.0 °F 78% 30.03 in 10.0 mi WNW 12.7 mph 20.7 mph N/A   Overcast
9:36 PM 63.0 °F 55.0 °F 75% 30.03 in 10.0 mi NW 11.5 mph 19.6 mph N/A   Overcast
9:51 PM 63.0 °F 55.0 °F 75% 30.04 in 10.0 mi NW 12.7 mph 20.7 mph N/A   Scattered Clouds
10:51 PM 63.0 °F 53.1 °F 70% 30.04 in 10.0 mi NW 6.9 mph - N/A   Overcast
11:51 PM 63.0 °F 54.0 °F 72% 30.04 in 10.0 mi NW 11.5 mph - N/A   Overcast